Regional Weather Roundup
Issued by NWS

Home | Current Version | Previous Version | Graphics & Text | Print | Product List | Glossary On
Versions: 1 2 3 4 5 6 7 8 9 10 11 12 13 14 15 16 17 18 19 20 21 22 23 24 25 26 27 28 29 30 31 32 33 34 35 36 37 38 39 40 41 42 43 44 45 46 47 48 49 50
000
ASUS43 KIND 242259
RWRIN

WEATHER ROUNDUP FOR INDIANA
NATIONAL WEATHER SERVICE INDIANAPOLIS IN
600 PM EST FRI FEB 24 2017

NOTE: "FAIR" INDICATES FEW OR NO CLOUDS BELOW 12,000 FEET WITH NO
SIGNIFICANT WEATHER AND/OR OBSTRUCTIONS TO VISIBILITY.

* - STATION DOES NOT REPORT WEATHER SUCH AS PRECIPITATION OR FOG.

+ - STATION NOT QUALITY CONTROLLED BY THE NATIONAL WEATHER SERVICE.
    USE DATA WITH CAUTION...ESPECIALLY DEWPOINT AND RELATIVE
    HUMIDITY OBSERVATIONS.

INZ001>003-010>013-019-020-250000-
NORTHWEST INDIANA

CITY           SKY/WX    TMP DP  RH WIND       PRES   REMARKS
KNOX *+        CLOUDY    54  36  50 W9        29.45R
MICHIGAN CITY+ CLOUDY    37  37 100 W9        29.51R FOG
RENSSELAER +   CLOUDY    54  46  76 W18G25    29.50R

$$

LMZ046-743>745-250000-
SOUTHERN LAKE MICHIGAN

STATION/POSITION TIME  TEMP    WIND        PRES    WAVE
                       AIR SEA DIR/SP/G            HT
                 (UTC) (F)     (DEG/KT/KT) (MB)    (FT)
BURNS HARBOR     2240   36     300/  9/ 14  999.7R
MICHIGAN CITY    2230   36     220/ 12/ 12   N/A

$$

INZ004-005-014>016-021>024-250000-
NORTH CENTRAL INDIANA

CITY           SKY/WX    TMP DP  RH WIND       PRES   REMARKS
ELKHART        MOCLDY    59  55  88 S8        29.43F
GOSHEN         RAIN      60  55  83 SW14G21   29.45S
SOUTH BEND     CLOUDY    54  51  90 W12       29.46R

$$

INZ006>009-017-018-025>027-250000-
NORTHEAST INDIANA

CITY           SKY/WX    TMP DP  RH WIND       PRES   REMARKS
ANGOLA *+      MOCLDY    64  55  72 S16       29.45F
FORT WAYNE     CLOUDY    64  55  72 S13       29.47F
KENDALLVILLE + CLOUDY    64  55  70 SW18G28   29.46F

$$

INZ028-029-035-036-043>045-051>053-250000-
WEST CENTRAL INDIANA

CITY           SKY/WX    TMP DP  RH WIND       PRES   REMARKS
LAFAYETTE      CLOUDY    54  51  90 W10G20    29.51R
TERRE HAUTE    LGT RAIN  56  51  84 W14       29.55R

$$

INZ030>032-037>040-046>048-054>057-064-065-250000-
CENTRAL INDIANA

CITY           SKY/WX    TMP DP  RH WIND       PRES   REMARKS
COLUMBUS       MOCLDY    64  55  72 SW13      29.53R
GREENWOOD *+   MOCLDY    68  53  58 SW9       29.52F
INDIANAPOLIS   CLOUDY    63  55  75 SW14      29.49F
-EAGLE CREEK   PTCLDY    65  54  67 S7        29.49F
KOKOMO +       CLOUDY    63  55  75 S15       29.48F
MT COMFORT *+  CLOUDY    64  54  68 SW14      29.51F
SHELBYVILLE    PTCLDY    68  53  58 SW14      29.50F

$$

INZ033-034-041-042-049-050-058-059-250000-
EAST CENTRAL INDIANA

CITY           SKY/WX    TMP DP  RH WIND       PRES   REMARKS
MUNCIE         CLOUDY    67  53  61 VRB5      29.49F

$$

INZ060-061-067>069-081>083-085>088-250000-
SOUTHWEST INDIANA

CITY           SKY/WX    TMP DP  RH WIND       PRES   REMARKS
EVANSVILLE     LGT RAIN  65  55  70 SW18      29.59R
HUNTINGBURG *+ CLOUDY    68  54  60 W15       29.57R

$$

INZ062-063-066-070>080-084-089>092-250000-
SOUTH CENTRAL AND SOUTHEAST INDIANA

CITY           SKY/WX    TMP DP  RH WIND       PRES   REMARKS
BLOOMINGTON    CLOUDY    67  52  58 SW10      29.52F
MADISON *+     CLOUDY    72  48  43 S16G22    29.54F
SEYMOUR +      CLOUDY    66  55  68 SW9       29.54R

$$





USA.gov is the U.S. government's official web portal to all federal, state and local government web resources and services.